Regional Weather Roundup
Issued by NWS

Home | Current Version | Previous Version | Graphics & Text | Print | Product List | Glossary On
Versions: 1 2 3 4 5 6 7 8 9 10 11 12 13 14 15 16 17 18 19 20 21 22 23 24 25 26 27 28 29 30 31 32 33 34 35 36 37 38 39 40 41 42 43 44 45 46 47 48 49 50
522
ASUS43 KDMX 220206
RWRIA

WEATHER ROUNDUP FOR IOWA
NATIONAL WEATHER SERVICE DES MOINES IA
900 PM CDT MON AUG 21 2017

NOTE: "FAIR" INDICATES FEW OR NO CLOUDS BELOW 12,000 FEET WITH NO
SIGNIFICANT WEATHER AND/OR OBSTRUCTIONS TO VISIBILITY.

* - THESE STATIONS ARE NOT NWS STATIONS...THUS NOT UNDER NWS
QUALITY CONTROL.  THEY ALSO DO NOT REPORT WEATHER SUCH
AS PRECIPITATION OR FOG.

IAZ001>003-012>014-020>022-031>034-043>046-220300-
   NORTHWEST IOWA

CITY           SKY/WX    TMP DP  RH WIND       PRES   REMARKS
CARROLL *      CLOUDY    66  66 100 S8        29.98F
CHEROKEE *     CLOUDY    64  64 100 S5        29.96S
DENISON *      RAIN      64  63  94 S12       30.01F
LE MARS *      CLOUDY   104 N/A N/A CALM      29.98R
ORANGE CITY *  CLOUDY    64  64 100 CALM      29.98F
SHELDON *      CLOUDY    64  63  94 W5        29.95F
SIOUX CITY     CLOUDY    66  66 100 S3        29.99R
SPENCER        CLOUDY    64  63  96 W5        29.96F
STORM LAKE *   CLOUDY    64  63  94 SW7       29.98S
$$

IAZ055>058-069>071-079>083-090>094-220300-
   SOUTHWEST IOWA

CITY           SKY/WX    TMP DP  RH WIND       PRES   REMARKS
ATLANTIC *     CLOUDY    68  66  94 NE9       29.98R
AUDUBON *      LGT RAIN  66  63  88 NE12      30.04R
CLARINDA *     MOCLDY    77  75  94 NE6       29.95S
COUNCIL BLFS * CLOUDY    72  70  94 E13       29.96R
CRESTON *      CLOUDY    66  66 100 SE8       30.00R
HARLAN  *      CLOUDY    68  64  88 NE7       30.03R
LAMONI         TSTM      69  68  96 NE10G26   29.98R FOG
RED OAK *      CLOUDY    75  70  83 NE10      29.95R
SHENANDOAH *   CLOUDY    77  75  94 NE3       29.93S
$$

IAZ047>049-059>061-072>074-084-220300-
   CENTRAL IOWA

CITY           SKY/WX    TMP DP  RH WIND       PRES   REMARKS
AMES           MOCLDY    65  65 100 NW6       29.97R
ANKENY *       CLOUDY    66  63  88 S5G12     29.93F
BOONE *        CLOUDY    66  64  94 SE5G12    29.96S
CHARITON *     LGT RAIN  66  64  94 E6        29.95F
DES MOINES     CLOUDY    66  64  93 SE9       29.93F
GRINNELL*      RAIN      66  64  92 SE3       29.94F
KNOXVILLE *    LGT RAIN  66  64  94 SE6       29.92F
MARSHALLTOWN   MOCLDY    66  65  96 SE6       29.91F
NEWTON *       MOCLDY    66  64  94 SE8       29.92F
PELLA *        RAIN      66  64  94 E3        29.94F
PERRY *        HVY RAIN  66  65  97 NW7       30.01R
$$

IAZ004>006-015-016-023>025-035-036-220300-
   NORTH CENTRAL IOWA

CITY           SKY/WX    TMP DP  RH WIND       PRES   REMARKS
ALGONA *       CLOUDY    64  64 100 SW7G14    29.96R
CLARION *      CLOUDY    64  64 100 W12       29.96R
ESTHERVILLE    CLOUDY    64  64 100 W7        29.95S
FORT DODGE *   MOCLDY    64  61  88 NW6       29.97R
FOREST CITY *    N/A     64  63  94 SW6       29.92R
WEBSTER CITY * CLOUDY    64  63  94 W5        29.94R
IOWA FALLS *     N/A     65  64  98 SW9       29.95R
$$

IAZ007>011-017>019-026>030-037>042-050>054-066-220300-
   NORTHEAST IOWA

CITY           SKY/WX    TMP DP  RH WIND       PRES   REMARKS
CEDAR RAPIDS   LGT RAIN  67  66  97 NE7       29.93F
CHARLES CITY * CLOUDY    64  64 100 S5        29.89S
CLINTON *      CLOUDY    73  70  90 S6        29.96F
DECORAH *      CLOUDY    64  63  94 CALM      29.85R
DUBUQUE        CLOUDY    71  68  90 W8        29.99R
MONTICELLO *   RAIN      68  68 100 CALM      29.97F
OELWEIN *      CLOUDY    66  64  94 SE9       29.89R
WATERLOO       CLOUDY    65  63  93 S5        29.88S
$$

IAZ064-065-067-068-078-220300-
   EAST CENTRAL IOWA

CITY           SKY/WX    TMP DP  RH WIND       PRES   REMARKS
DAVENPORT      CLOUDY    73  69  87 S6        29.98S
IOWA CITY      TSTM      73  70  90 N10       29.98S
MT. PLEASANT * DRIZZLE   74  69  85 W12G17    29.98F
MUSCATINE *    CLOUDY    75  68  78 W6        29.97R
QUAD CITIES    CLOUDY    76  71  85 VRB7      29.95F
$$

IAZ062-063-075>077-085>089-095>099-220300-
   SOUTHEAST IOWA

CITY           SKY/WX    TMP DP  RH WIND       PRES   REMARKS
BURLINGTON     CLOUDY    75  74  96 N5        29.97S
FAIRFIELD *    CLOUDY    68  64  88 VRB5      29.98F
FORT MADISON * MOCLDY    75  73  94 N5        29.99R
KEOKUK *       CLOUDY    75  73  94 S5        29.94F
OSKALOOSA *    LGT RAIN  67  65  94 S3        29.97F
CENTERVILLE *  LGT RAIN  68  66  94 N12       30.00R
OTTUMWA        LGT RAIN  69  66  90 W6        29.98F
WASHINGTON *   LGT RAIN  68  66  94 CALM      29.97F
$$

ABBREVIATIONS USED IN REMARKS
   TC - TEMPERATURES IN CELSIUS
  WCI - WIND CHILL INDEX
   HX - HEAT INDEX
  VSB - VISIBILITY
$$





USA.gov is the U.S. government's official web portal to all federal, state and local government web resources and services.